sat.trackr.live / text

‹ back to catalog

HULIANWANG DIGUI-115

NORAD 66954 · 2025-287B

PAYLOAD ACTIVE UNKNOWN

§ Identity

Operator
Country
PRC
Launch date
2025-12-08
Launch site
TAISC
Launch vehicle
Mass (kg)
RCS (m²)

External: N2YO · Heavens-Above · Gunter

§ Orbital elements

Epoch: 2026-09-20T05:59:34.130112Z

Period
108.73 min
Inclination
86.4902°
Eccentricity
0.0001259
Mean motion
13.24394662 rev/d
Perigee alt
1,167.0 km
Apogee alt
1,168.9 km
Semi-major
7,546.1 km
B*
-2.1009e-4
RAAN
250.2666°
Arg perigee
86.8241°
Mean anomaly
273.3037°
Rev number
3,792

§ Raw data

HULIANWANG DIGUI-1151 66954U 25287B   26263.24970058 -.00000075  00000+0 -21009-3 0  99962 66954  86.4902 250.2666 0001259  86.8241 273.3037 13.24394662 37920

JSON: /api/v1/satellites/66954 · /tle

For live sub-satellite position, see the globe view (requires WebGL).

§ Visibility from observer

Set your observer location to see the next 7 days of passes ≥ 10°. The values pass through the URL so the page stays shareable.

No JS? Fill the form by hand. The geolocation button needs JavaScript.